| time (UTC) | temp F | wind direction | speed knots | gust knots | rain 1hr in | rain 24hr in | rain mn in | humidity % | barometer mb |
| 20260508024523 | 64 | 313 | 0.9 | 3.5 | 0.00 | 0.00 | 0.00 | 53 | 1016.3 |
| 20260508023018 | 64 | 344 | 0.9 | 3.5 | 0.00 | 0.00 | 0.00 | 49 | 1016.3 |
| 20260508021532 | 65 | 360 | 0.9 | 3.5 | 0.00 | 0.00 | 0.00 | 51 | 1016.3 |
| 20260508020023 | 66 | 351 | 0.9 | 3.5 | 0.00 | 0.00 | 0.00 | 47 | 1016.5 |
| 20260508014528 | 67 | 13 | 0.9 | 6.1 | 0.00 | 0.00 | 0.00 | 45 | 1016.7 |
| 20260508013024 | 67 | 333 | 1.7 | 5.2 | 0.00 | 0.00 | 0.00 | 50 | 1016.6 |
| 20260508011520 | 67 | 44 | 1.7 | 4.3 | 0.00 | 0.00 | 0.00 | 46 | 1016.7 |
| 20260508010024 | 67 | 344 | 1.7 | 4.3 | 0.00 | 0.00 | 0.00 | 47 | 1016.8 |
| 20260508004529 | 67 | 344 | 0.9 | 7.0 | 0.00 | 0.00 | 0.00 | 48 | 1016.9 |
| 20260508003012 | 68 | 263 | 0.9 | 5.2 | 0.00 | 0.00 | 0.00 | 48 | 1017.2 |
| 20260508001510 | 68 | 344 | 2.6 | 4.3 | 0.00 | 0.00 | 0.00 | 50 | 1017.3 |
| 20260508000026 | 68 | 192 | 0.9 | 6.1 | 0.00 | 0.00 | 0.00 | 47 | 1017.3 |
| 20260507234529 | 68 | 218 | 0.9 | 4.3 | 0.00 | 0.00 | 0.00 | 47 | 1017.4 |
| 20260507233025 | 68 | 336 | 3.5 | 8.7 | 0.00 | 0.00 | 0.00 | 49 | 1017.6 |
| 20260507231527 | 68 | 252 | 3.5 | 7.8 | 0.00 | 0.00 | 0.00 | 46 | 1017.8 |
| 20260507230022 | 68 | 316 | 3.5 | 7.0 | 0.00 | 0.00 | 0.00 | 46 | 1018.0 |
| 20260507224516 | 68 | 14 | 3.5 | 7.0 | 0.00 | 0.00 | 0.00 | 40 | 1018.3 |
| 20260507223016 | 67 | 150 | 0.9 | 4.3 | 0.00 | 0.00 | 0.00 | 38 | 1018.5 |
| 20260507221512 | 67 | 323 | 0.9 | 3.5 | 0.00 | 0.00 | 0.00 | 40 | 1018.8 |
| 20260507220025 | 67 | 293 | 1.7 | 6.1 | 0.00 | 0.00 | 0.00 | 50 | 1019.1 |
| 20260507214523 | 66 | 258 | 2.6 | 5.2 | 0.00 | 0.00 | 0.00 | 48 | 1019.1 |
| 20260507213021 | 64 | 315 | 1.7 | 7.8 | 0.00 | 0.00 | 0.00 | 52 | 1019.3 |
| 20260507211521 | 64 | 72 | 0.9 | 3.5 | 0.00 | 0.00 | 0.00 | 51 | 1019.4 |
| 20260507210017 | 64 | 302 | 1.7 | 6.1 | 0.00 | 0.00 | 0.00 | 53 | 1019.8 |
| 20260507204520 | 63 | 296 | 1.7 | 3.5 | 0.00 | 0.00 | 0.00 | 62 | 1019.9 |
| 20260507203020 | 62 | 337 | 2.6 | 4.3 | 0.00 | 0.00 | 0.00 | 54 | 1020.1 |
| 20260507201518 | 62 | 348 | 3.5 | 7.0 | 0.00 | 0.00 | 0.00 | 54 | 1020.2 |
| 20260507200024 | 62 | 322 | 3.5 | 7.0 | 0.00 | 0.00 | 0.00 | 60 | 1020.4 |
| 20260507194523 | 61 | 319 | 1.7 | 7.0 | 0.00 | 0.00 | 0.00 | 59 | 1020.5 |
| 20260507193026 | 61 | 263 | 2.6 | 7.8 | 0.00 | 0.00 | 0.00 | 62 | 1020.7 |
| 20260507191529 | 61 | 339 | 0.9 | 3.5 | 0.00 | 0.00 | 0.00 | 64 | 1020.7 |
| 20260507190028 | 59 | 234 | 1.7 | 5.2 | 0.00 | 0.00 | 0.00 | 65 | 1020.9 |
| 20260507184522 | 60 | 286 | 1.7 | 3.5 | 0.00 | 0.00 | 0.00 | 61 | 1021.0 |
| 20260507183012 | 58 | 22 | 0.9 | 4.3 | 0.00 | 0.00 | 0.00 | 68 | 1021.1 |
| 20260507181504 | 56 | 325 | 0.0 | 6.1 | 0.00 | 0.00 | 0.00 | 64 | 1021.4 |
| 20260507180018 | 57 | 21 | 0.9 | 3.5 | 0.00 | 0.00 | 0.00 | 67 | 1021.4 |
| 20260507174514 | 55 | 184 | 0.9 | 2.6 | 0.00 | 0.00 | 0.00 | 66 | 1021.5 |
| 20260507173011 | 57 | 352 | 2.6 | 6.1 | 0.00 | 0.00 | 0.00 | 66 | 1021.7 |
| 20260507171510 | 56 | 65 | 0.0 | 3.5 | 0.00 | 0.00 | 0.00 | 65 | 1021.8 |
| 20260507170008 | 55 | 26 | 1.7 | 4.3 | 0.00 | 0.00 | 0.00 | 70 | 1021.8 |
| 20260507164508 | 54 | 329 | 1.7 | 4.3 | 0.00 | 0.00 | 0.00 | 69 | 1021.7 |
| 20260507163008 | 53 | 44 | 1.7 | 4.3 | 0.00 | 0.00 | 0.00 | 70 | 1021.7 |
| 20260507161520 | 52 | 333 | 2.6 | 5.2 | 0.00 | 0.00 | 0.00 | 73 | 1021.8 |
| 20260507160028 | 52 | 360 | 2.6 | 7.0 | 0.00 | 0.00 | 0.00 | 73 | 1021.7 |
| 20260507154519 | 51 | 248 | 1.7 | 5.2 | 0.00 | 0.00 | 0.00 | 73 | 1021.7 |
| 20260507153016 | 51 | 336 | 3.5 | 8.7 | 0.00 | 0.00 | 0.00 | 74 | 1021.9 |
| 20260507151513 | 50 | 31 | 3.5 | 7.8 | 0.00 | 0.00 | 0.00 | 76 | 1021.8 |
| 20260507150013 | 50 | 296 | 0.9 | 7.0 | 0.00 | 0.00 | 0.00 | 76 | 1021.7 |
| 20260507144528 | 49 | 320 | 3.5 | 7.8 | 0.00 | 0.00 | 0.00 | 76 | 1021.7 |
| 20260507143038 | 49 | 276 | 2.6 | 5.2 | 0.00 | 0.00 | 0.00 | 76 | 1021.8 |
| 20260507141520 | 49 | 337 | 2.6 | 9.6 | 0.00 | 0.00 | 0.00 | 75 | 1021.8 |
| 20260507140020 | 49 | 30 | 4.3 | 8.7 | 0.00 | 0.00 | 0.00 | 76 | 1021.6 |
| 20260507134514 | 49 | 267 | 2.6 | 7.8 | 0.00 | 0.00 | 0.00 | 77 | 1021.4 |
| 20260507133010 | 49 | 335 | 1.7 | 7.0 | 0.00 | 0.00 | 0.00 | 77 | 1021.2 |
| 20260507131512 | 49 | 343 | 2.6 | 8.7 | 0.00 | 0.00 | 0.00 | 77 | 1021.1 |
| 20260507130029 | 49 | 347 | 4.3 | 8.7 | 0.00 | 0.00 | 0.00 | 77 | 1021.1 |
| 20260507124525 | 49 | 308 | 1.7 | 7.8 | 0.00 | 0.00 | 0.00 | 77 | 1021.2 |
| 20260507123023 | 49 | 31 | 3.5 | 8.7 | 0.00 | 0.00 | 0.00 | 77 | 1021.2 |
| 20260507121520 | 49 | 338 | 3.5 | 7.8 | 0.00 | 0.00 | 0.00 | 77 | 1021.3 |
| 20260507120016 | 49 | 336 | 2.6 | 7.8 | 0.00 | 0.00 | 0.00 | 77 | 1021.4 |
| 20260507114521 | 49 | 294 | 3.5 | 7.0 | 0.00 | 0.00 | 0.00 | 78 | 1021.4 |
| 20260507113019 | 49 | 16 | 2.6 | 8.7 | 0.00 | 0.00 | 0.00 | 77 | 1021.6 |
| 20260507111516 | 49 | 331 | 1.7 | 4.3 | 0.00 | 0.00 | 0.00 | 78 | 1021.5 |
| 20260507110015 | 50 | 325 | 3.5 | 7.8 | 0.00 | 0.00 | 0.00 | 77 | 1021.6 |
| 20260507104525 | 50 | 309 | 3.5 | 7.8 | 0.00 | 0.00 | 0.00 | 77 | 1021.6 |
| 20260507103020 | 51 | 28 | 4.3 | 9.6 | 0.00 | 0.00 | 0.00 | 76 | 1021.8 |
| 20260507101518 | 51 | 323 | 3.5 | 8.7 | 0.00 | 0.00 | 0.00 | 76 | 1021.9 |
| 20260507100034 | 51 | 320 | 2.6 | 9.6 | 0.00 | 0.00 | 0.00 | 76 | 1021.9 |
| 20260507094521 | 51 | 298 | 4.3 | 9.6 | 0.00 | 0.00 | 0.00 | 76 | 1022.0 |
| 20260507093022 | 51 | 336 | 2.6 | 8.7 | 0.00 | 0.00 | 0.00 | 76 | 1022.0 |
| 20260507091522 | 52 | 325 | 1.7 | 7.0 | 0.00 | 0.00 | 0.00 | 77 | 1022.2 |
| 20260507090017 | 52 | 337 | 3.5 | 9.6 | 0.00 | 0.00 | 0.00 | 76 | 1022.3 |
| 20260507084521 | 52 | 350 | 1.7 | 7.0 | 0.00 | 0.00 | 0.00 | 77 | 1022.2 |
| 20260507083017 | 52 | 333 | 2.6 | 6.1 | 0.00 | 0.00 | 0.00 | 78 | 1022.2 |
| 20260507081529 | 53 | 313 | 4.3 | 10.4 | 0.00 | 0.00 | 0.00 | 78 | 1022.2 |
| 20260507080025 | 53 | 321 | 3.5 | 7.8 | 0.00 | 0.00 | 0.00 | 77 | 1022.1 |
| 20260507074525 | 53 | 338 | 0.9 | 3.5 | 0.00 | 0.00 | 0.00 | 77 | 1022.1 |
| 20260507073024 | 53 | 294 | 2.6 | 5.2 | 0.00 | 0.00 | 0.00 | 77 | 1022.1 |
| 20260507071528 | 53 | 351 | 0.9 | 5.2 | 0.00 | 0.00 | 0.00 | 77 | 1022.0 |
| 20260507070026 | 53 | 324 | 1.7 | 7.8 | 0.00 | 0.00 | 0.00 | 77 | 1021.9 |
| 20260507064550 | 53 | 280 | 0.9 | 7.8 | 0.00 | 0.00 | 0.00 | 77 | 1022.0 |
| 20260507063034 | 53 | 306 | 4.3 | 7.8 | 0.00 | 0.00 | 0.00 | 77 | 1022.1 |
| 20260507061529 | 53 | 347 | 3.5 | 7.8 | 0.00 | 0.00 | 0.00 | 78 | 1022.2 |
| 20260507060029 | 53 | 317 | 3.5 | 9.6 | 0.00 | 0.00 | 0.00 | 78 | 1022.1 |
| 20260507054525 | 53 | 328 | 4.3 | 9.6 | 0.00 | 0.00 | 0.00 | 78 | 1022.1 |
| 20260507053025 | 53 | 325 | 5.2 | 8.7 | 0.00 | 0.00 | 0.00 | 78 | 1022.2 |
| 20260507051522 | 53 | 5 | 2.6 | 7.8 | 0.00 | 0.00 | 0.00 | 79 | 1022.2 |
| 20260507050038 | 53 | 309 | 1.7 | 7.8 | 0.00 | 0.00 | 0.00 | 78 | 1022.2 |
| 20260507044513 | 54 | 9 | 3.5 | 7.8 | 0.00 | 0.00 | 0.00 | 78 | 1022.2 |
| 20260507043010 | 54 | 9 | 4.3 | 9.6 | 0.00 | 0.00 | 0.00 | 77 | 1022.2 |
| 20260507041520 | 55 | 351 | 5.2 | 13.0 | 0.00 | 0.00 | 0.00 | 76 | 1022.0 |
| 20260507040011 | 55 | 334 | 4.3 | 13.9 | 0.00 | 0.00 | 0.00 | 76 | 1022.0 |
| 20260507034508 | 55 | 304 | 5.2 | 12.2 | 0.00 | 0.00 | 0.00 | 75 | 1021.8 |
| 20260507033025 | 56 | 343 | 5.2 | 15.6 | 0.00 | 0.00 | 0.00 | 75 | 1021.7 |
| 20260507031520 | 56 | 352 | 4.3 | 14.8 | 0.00 | 0.00 | 0.00 | 74 | 1021.5 |
| 20260507030025 | 57 | 11 | 5.2 | 9.6 | 0.00 | 0.00 | 0.00 | 75 | 1021.3 |